This is the latest recevied weather packets stored in our database for station/object KM4KBD. If no packets are shown the sender has not sent any weather packets the latest 10 day(s).
| Time | Temp. | Humidity | Pressure | Rain* | Wind** | Luminosity | Snow |
|---|---|---|---|---|---|---|---|
| 1777588872 | 16.67° C | 42% | 1021.2 hPa | 0 mm | - | 150 W/m² | - |
| 1777588568 | 16.67° C | 45% | 1021.3 hPa | 0 mm | - | 161 W/m² | - |
| 1777588263 | 16.11° C | 42% | 1021.1 hPa | 0 mm | - | 171 W/m² | - |
| 1777587958 | 16.11° C | 44% | 1021 hPa | 0 mm | - | 96 W/m² | - |
| 1777587655 | 15.56° C | 42% | 1021.3 hPa | 0 mm | - | 206 W/m² | - |
| 1777587355 | 16.67° C | 44% | 1021.1 hPa | 0 mm | - | 73 W/m² | - |
| 1777587050 | 16.67° C | 43% | 1021.1 hPa | 0 mm | - | 231 W/m² | - |
| 1777586747 | 16.67° C | 41% | 1021.2 hPa | 0 mm | - | 250 W/m² | - |
| 1777586443 | 16.67° C | 43% | 1021.1 hPa | 0 mm | - | 248 W/m² | - |
| 1777586143 | 16.67° C | 43% | 1021 hPa | 0 mm | - | 276 W/m² | - |
| 1777585841 | 16.11° C | 44% | 1021.1 hPa | 0 mm | - | 294 W/m² | - |
| 1777585540 | 17.22° C | 43% | 1021 hPa | 0 mm | - | 305 W/m² | - |
| 1777585236 | 16.67° C | 44% | 1021.1 hPa | 0 mm | - | 322 W/m² | - |
| 1777584932 | 16.11° C | 45% | 1021 hPa | 0 mm | - | 332 W/m² | - |
| 1777584629 | 15° C | 45% | 1021.1 hPa | 0 mm | - | 354 W/m² | - |
| 1777584326 | 15.56° C | 45% | 1021 hPa | 0 mm | - | 75 W/m² | - |
| 1777584022 | 17.22° C | 42% | 1021.2 hPa | 0 mm | - | 135 W/m² | - |
| 1777583717 | 16.67° C | 43% | 1021.2 hPa | 0 mm | - | 389 W/m² | - |
| 1777583416 | 17.22° C | 43% | 1021.4 hPa | 0 mm | - | 402 W/m² | - |
| 1777583115 | 17.78° C | 43% | 1021.5 hPa | 0 mm | - | 420 W/m² | - |
| 1777582811 | 17.22° C | 42% | 1021.5 hPa | 0 mm | - | 434 W/m² | - |
| 1777582508 | 17.22° C | 45% | 1021.5 hPa | 0 mm | - | 465 W/m² | - |
| 1777582203 | 16.67° C | 48% | 1021.3 hPa | 0 mm | - | 475 W/m² | - |
| 1777581901 | 17.78° C | 44% | 1021.7 hPa | 0 mm | - | 482 W/m² | - |
| 1777581596 | 17.22° C | 42% | 1021.7 hPa | 0 mm | - | 524 W/m² | - |
* Rain latest hour (hover to see other rain measurements)
** Current wind speed in m/s (hover to see current wind gust speed)